Location: Newark
(6.1731°S, 35.7419°E)
Time: 21:15:45
(UTC+00:00)

A-11 Canister half - Visible Passes

Search period start: 17 February 2020 00:00
Search period end: 27 February 2020 00:00
Orbit: 1517 x 1683 km, 47.2° (Epoch: 17 February)

Date Brightness Start Highest point End Pass type
(mag) Time Alt. Az. Time Alt. Az. Time Alt. Az.
17 Feb 9.4 00:51:19 51° SSE 00:51:19 51° SSE 00:58:07 10° SSE visible
17 Feb 10.6 02:50:25 10° WSW 02:54:28 13° SW 02:58:34 10° SSW visible
18 Feb 9.9 00:29:58 38° SSE 00:29:58 38° SSE 00:35:14 10° SE visible
18 Feb 10.5 02:28:11 12° WSW 02:31:26 15° SW 02:36:15 10° S visible
19 Feb 10.3 00:08:34 28° SE 00:08:34 28° SE 00:12:21 10° SE visible
19 Feb 10.4 02:06:47 16° SW 02:08:25 16° SW 02:13:48 10° S visible
19 Feb 10.7 23:47:08 20° SE 23:47:08 20° SE 23:49:26 10° SE visible
20 Feb 10.4 01:45:20 18° SW 01:45:23 18° SW 01:51:18 10° S visible
20 Feb 11.1 23:25:38 14° SE 23:25:38 14° SE 23:26:32 10° SE visible
21 Feb 10.4 01:23:51 19° SSW 01:23:51 19° SSW 01:28:44 10° S visible
22 Feb 10.5 01:02:19 19° SSW 01:02:19 19° SSW 01:06:09 10° S visible
23 Feb 10.7 00:40:45 17° S 00:40:45 17° S 00:43:30 10° S visible
24 Feb 10.9 00:19:08 15° S 00:19:08 15° S 00:20:51 10° S visible
24 Feb 11.1 23:57:29 12° S 23:57:29 12° S 23:58:11 10° S visible
